Regional Weather Roundup
Issued by NWS Huntsville, AL

Home | Current Version | Previous Version | Text Only | Print | Product List | Glossary On
Versions: 1 2 3 4 5 6 7 8 9 10 11 12 13 14 15 16 17 18 19 20 21 22 23 24 25 26 27 28 29 30 31 32 33 34 35 36 37 38 39 40 41 42 43 44 45 46 47 48 49 50
000
ASUS44 KHUN 282210
RWRHUN

WEATHER ROUNDUP FOR THE TENNESSEE VALLEY
NATIONAL WEATHER SERVICE HUNTSVILLE AL
500 PM CDT FRI AUG 28 2015

ALZ001>004-282300-
NORTHWEST ALABAMA

CITY           SKY/WX    TMP DP  RH WIND       PRES   REMARKS
BANKHEAD NF      N/A     87  67  50 E1          N/A  HX  90
RUSSELLVILLE     N/A     86 N/A N/A MISG        N/A
SHOALS AIRPORT PTSUNNY   85  66  53 E6        30.03F
SHOALS TVA RES   N/A     84 N/A N/A MISG        N/A
$$

ALZ005>007-016-282300-
NORTH CENTRAL ALABAMA

CITY           SKY/WX    TMP DP  RH WIND       PRES   REMARKS
CULLMAN AG STN   N/A     84 N/A N/A E5          N/A
DECATUR AP     SUNNY     85  67  54 E6        30.04F
HUNTSVILLE AP  MOSUNNY   87  66  49 E9        30.04S
HUN NWS/UAH      N/A     86  61  42 SE5         N/A
MERIDIANVILLE  SUNNY     86  55  35 SE6       30.05S
REDSTONE ARSN  SUNNY     85  67  54 SE8       30.04S
VINEMONT AP    FAIR      84  66  54 E6        30.07F
$$

ALZ008>010-282300-
NORTHEAST ALABAMA

CITY           SKY/WX    TMP DP  RH WIND       PRES   REMARKS
ALBERTVILLE    MOSUNNY   82  73  74 E8        30.06S
FORT PAYNE     SUNNY     82  61  47 SE8       30.07S
SCOTTSBORO AP  MOSUNNY   84  66  54 SE6       30.05F
SCOTTSBORO HCN   N/A     84 N/A N/A MISG        N/A
VALLEY HEAD      N/A     81 N/A N/A MISG        N/A
$$

TNZ076-096-097-282300-
SOUTHEASTERN MIDDLE TENNESSEE

CITY           SKY/WX    TMP DP  RH WIND       PRES   REMARKS
TULLAHOMA      SUNNY     84  63  48 VRB7      30.09S
WINCHESTER     SUNNY     84  66  54 SE8       30.07F
$$

...SURROUNDING SITES...

CITY           SKY/WX    TMP DP  RH WIND       PRES   REMARKS
ATLANTA        PTSUNNY   81  66  60 E10       30.11S
ANNISTON       SUNNY     86  67  52 E9        30.04F
BIRMINGHAM     MOSUNNY   87  70  56 E7        30.04S HX  92
CHATTANOOGA    PTSUNNY   86  64  47 S9        30.07S
DALTON         SUNNY     82  64  54 S8        30.09S
GADSDEN        MOSUNNY   86  66  51 E10       30.03S
GOLDEN TRNGL   NOT AVBL
HALEYVILLE     FAIR      85  67  54 CALM      30.07S
JACKSON TN     SUNNY     86  65  49 VRB5      30.02F
MEMPHIS        MOSUNNY   89  62  40 S6        30.00F
NASHVILLE      MOSUNNY   88  57  34 SE9       30.05S
OXFORD MS      FAIR      86  63  45 SE8       30.02S
ROME           SUNNY     84  67  56 SE8       30.06F
SAVANNAH       MOSUNNY   88  32  13 SE5       30.03S
TUPELO         SUNNY     88  63  43 S3        30.00F
TUSCALOOSA     PTSUNNY   88  66  48 E7        29.99S HX  90
$$

...GULF COAST WEATHER...

CITY           SKY/WX    TMP DP  RH WIND       PRES   REMARKS
GULFPORT       SUNNY     85  66  53 SE17      29.95F
PASCAGOULA     SUNNY     86  65  49 SE8       29.97S
MOBILE         MOSUNNY   87  65  47 S6        29.97S
GULF SHORES    CLEAR     85  68  55 SW7       29.96S
PENSACOLA      MOSUNNY   85  68  56 SW7       29.95F
DESTIN         MOSUNNY   89  70  53 VRB3      29.96R HX  94
PANAMA CITY    CLOUDY    85  74  69 E8        29.97S HX  92
APPALACHICOLA  PTSUNNY   84  74  71 SE8       29.98R HX  91
$$



USA.gov is the U.S. government's official web portal to all federal, state and local government web resources and services.